Location: Piolenc
(44.1794°N, 4.7641°E)
Time: 04:24:04
(UTC+00:00)

Lacrosse 4 Rocket - Pass Details

Date: 27 January 2021
Orbit: 536 x 621 km, 68.0° (Epoch: 27 February)

Event Time Altitude Azimuth Distance (km) Brightness Sun altitude
Exits shadow 05:40:46 26° 290° (WNW) 1,177 2.4 -15.0°
Maximum altitude 05:41:36 28° 310° (NW) 1,127 2.4 -14.8°
Drops below altitude 10° 05:45:23 10° 10° (N) 1,947 4.1 -14.2°
Sets 05:47:56 0° 22° (NNE) 2,868 5.1 -13.7°
